Date String (YYYY-MM-DD hh:mm:ss) UTC,Instrument flags,Ambient pressure (hPa),Sample flow (lpm),Bypass flow (lpm),Sample temperature (°C),Ambient temperature (°C),ASC tube jacket temperature (°C),LED temperature (°C),Box temperature (°C),Sample RH (%),Span deviation,Mass concentration (μg/m³),Mass concentration (μg/m³),Mass concentration (μg/m³)
DateTimeUTC,F1_M11,P_M11,Q1_M11,Q2_M11,T1_M11,T2_M11,T3_M11,T4_M11,T5_M11,U1_M11,ZSPAN_M11,X0_M11,X2_M11,X1_M11
2023-02-09 08:00:00,,0827.0,4.98,0.00,22.6,21.4,00.0,31.4,24.4,08.8,0000.0,0001.74,0000.89,0000.57
2023-02-09 08:01:00,,0827.1,4.99,0.00,22.6,21.3,00.0,31.4,24.4,09.0,0000.0,0001.76,0000.91,0000.57
2023-02-09 08:02:00,,0826.9,4.98,0.00,22.6,21.2,00.0,31.4,24.3,09.1,0000.0,0001.93,0000.96,0000.58
2023-02-09 08:03:00,,0826.9,4.99,0.00,22.6,21.1,00.0,31.4,24.3,09.3,0000.0,0002.52,0000.98,0000.58
2023-02-09 08:04:00,,0826.9,5.01,0.00,22.6,21.1,00.0,31.4,24.2,09.3,0000.0,0003.19,0000.99,0000.57
2023-02-09 08:05:00,,0827.2,5.01,0.00,22.6,21.0,00.0,31.4,24.2,09.5,0000.0,0003.63,0000.98,0000.57
2023-02-09 08:06:00,,0827.0,5.03,0.00,22.5,21.0,00.0,31.4,24.3,09.5,0000.0,0003.59,0000.92,0000.56
2023-02-09 08:07:00,,0826.9,4.97,0.00,22.5,20.9,00.0,31.4,24.2,09.5,0000.0,0003.50,0000.89,0000.55
2023-02-09 08:08:00,,0826.9,5.01,0.00,22.5,20.8,00.0,31.4,24.2,09.5,0000.0,0003.46,0000.88,0000.54
2023-02-09 08:09:00,,0827.0,4.97,0.00,22.5,21.0,00.0,31.4,24.2,09.5,0000.0,0003.71,0000.89,0000.54
2023-02-09 08:10:00,,0827.1,4.95,0.00,22.6,21.9,00.0,31.4,24.5,09.6,0000.0,0003.85,0000.89,0000.53
2023-02-09 08:11:00,,0827.0,5.03,0.00,22.7,22.7,00.0,31.4,24.7,09.5,0000.0,0003.81,0000.86,0000.52
2023-02-09 08:12:00,,0827.0,4.99,0.00,22.7,22.5,00.0,31.4,24.7,09.3,0000.0,0003.89,0000.83,0000.51
2023-02-09 08:13:00,,0827.0,5.04,0.00,22.7,22.2,00.0,31.4,24.6,09.4,0000.0,0004.27,0000.76,0000.48
2023-02-09 08:14:00,,0826.9,5.02,0.00,22.7,21.9,00.0,31.5,24.5,09.4,0000.0,0003.65,0000.71,0000.47
2023-02-09 08:15:00,,0826.9,4.91,0.00,22.7,21.7,00.0,31.5,24.5,09.5,0000.0,0002.87,0000.70,0000.47
2023-02-09 08:16:00,,0827.0,4.97,0.00,22.7,21.5,00.0,31.5,24.4,09.6,0000.0,0002.45,0000.70,0000.47
2023-02-09 08:17:00,,0827.0,5.02,0.00,22.7,21.4,00.0,31.5,24.4,09.6,0000.0,0002.33,0000.71,0000.47
2023-02-09 08:18:00,,0826.9,5.01,0.00,22.7,21.3,00.0,31.5,24.4,09.7,0000.0,0002.26,0000.68,0000.47
2023-02-09 08:19:00,,0827.0,4.97,0.00,22.7,21.2,00.0,31.5,24.4,09.6,0000.0,0002.23,0000.66,0000.46
2023-02-09 08:20:00,,0827.2,5.02,0.00,22.7,21.1,00.0,31.5,24.4,09.7,0000.0,0002.00,0000.64,0000.45
2023-02-09 08:21:00,,0827.1,5.01,0.00,22.6,21.1,00.0,31.5,24.4,09.7,0000.0,0001.79,0000.63,0000.46
2023-02-09 08:22:00,,0827.1,5.05,0.00,22.6,21.0,00.0,31.5,24.3,09.6,0000.0,0001.86,0000.65,0000.46
2023-02-09 08:23:00,,0827.2,5.02,0.00,22.6,21.0,00.0,31.5,24.3,09.6,0000.0,0001.71,0000.65,0000.46
2023-02-09 08:24:00,,0827.2,4.99,0.00,22.6,21.0,00.0,31.5,24.3,09.7,0000.0,0001.17,0000.67,0000.48
2023-02-09 08:25:00,,0827.2,4.99,0.00,22.6,21.0,00.0,31.5,24.3,09.7,0000.0,0001.16,0000.66,0000.47
2023-02-09 08:26:00,,0827.2,5.00,0.00,22.6,20.9,00.0,31.5,24.2,09.6,0000.0,0001.22,0000.66,0000.47
2023-02-09 08:27:00,,0827.2,5.01,0.00,22.5,20.9,00.0,31.4,24.2,09.6,0000.0,0001.21,0000.65,0000.46
2023-02-09 08:28:00,,0827.2,4.99,0.00,22.5,21.3,00.0,31.4,24.3,09.6,0000.0,0001.18,0000.64,0000.46
2023-02-09 08:29:00,,0827.3,5.02,0.00,22.6,22.3,00.0,31.4,24.6,09.6,0000.0,0001.22,0000.66,0000.46
2023-02-09 08:30:00,,0827.4,4.99,0.00,22.7,22.7,00.0,31.4,24.7,09.6,0000.0,0001.29,0000.69,0000.46
2023-02-09 08:31:00,,0827.4,5.05,0.00,22.8,22.4,00.0,31.5,24.7,09.7,0000.0,0001.36,0000.73,0000.46
2023-02-09 08:32:00,,0827.4,4.95,0.00,22.7,22.0,00.0,31.5,24.6,09.8,0000.0,0001.32,0000.72,0000.45
2023-02-09 08:33:00,,0827.4,4.94,0.00,22.7,21.8,00.0,31.5,24.5,09.9,0000.0,0001.19,0000.69,0000.45
2023-02-09 08:34:00,,0827.4,4.94,0.00,22.7,21.6,00.0,31.5,24.5,09.9,0000.0,0001.15,0000.68,0000.44
2023-02-09 08:35:00,,0827.4,5.01,0.00,22.7,21.5,00.0,31.5,24.4,09.8,0000.0,0001.27,0000.69,0000.43
2023-02-09 08:36:00,,0827.4,4.94,0.00,22.7,21.3,00.0,31.5,24.4,09.7,0000.0,0001.31,0000.71,0000.43
2023-02-09 08:37:00,,0827.4,5.00,0.00,22.7,21.2,00.0,31.5,24.4,09.8,0000.0,0001.24,0000.70,0000.44
2023-02-09 08:38:00,,0827.4,5.01,0.00,22.6,21.1,00.0,31.5,24.3,09.8,0000.0,0001.29,0000.72,0000.43
2023-02-09 08:39:00,,0827.5,5.04,0.00,22.6,21.1,00.0,31.5,24.3,09.8,0000.0,0001.36,0000.73,0000.43
2023-02-09 08:40:00,,0827.5,5.00,0.00,22.6,21.0,00.0,31.5,24.3,09.8,0000.0,0001.36,0000.72,0000.43
2023-02-09 08:41:00,,0827.5,5.03,0.00,22.6,21.0,00.0,31.5,24.3,09.9,0000.0,0001.30,0000.70,0000.43
2023-02-09 08:42:00,,0827.6,5.02,0.00,22.6,21.1,00.0,31.5,24.3,09.9,0000.0,0001.24,0000.66,0000.43
2023-02-09 08:43:00,,0827.5,5.02,0.00,22.6,22.0,00.0,31.4,24.5,09.9,0000.0,0001.24,0000.65,0000.42
2023-02-09 08:44:00,,0827.6,4.98,0.00,22.7,22.8,00.0,31.4,24.8,09.8,0000.0,0001.26,0000.65,0000.41
2023-02-09 08:45:00,,0827.6,4.98,0.00,22.8,22.6,00.0,31.5,24.7,09.8,0000.0,0001.31,0000.67,0000.41
2023-02-09 08:46:00,,0827.6,4.98,0.00,22.8,22.3,00.0,31.5,24.6,09.7,0000.0,0001.29,0000.68,0000.40
2023-02-09 08:47:00,,0827.6,5.03,0.00,22.8,22.0,00.0,31.5,24.6,09.7,0000.0,0001.30,0000.69,0000.40
2023-02-09 08:48:00,,0827.6,5.07,0.00,22.8,21.7,00.0,31.6,24.5,09.7,0000.0,0002.14,0000.73,0000.40
2023-02-09 08:49:00,,0827.6,4.99,0.00,22.8,21.6,00.0,31.6,24.5,09.8,0000.0,0002.13,0000.72,0000.39
2023-02-09 08:50:00,,0827.7,5.01,0.00,22.7,21.4,00.0,31.6,24.5,09.6,0000.0,0002.11,0000.71,0000.39
2023-02-09 08:51:00,,0827.7,5.00,0.00,22.7,21.3,00.0,31.6,24.5,09.5,0000.0,0002.22,0000.71,0000.39
2023-02-09 08:52:00,,0827.7,5.00,0.00,22.7,21.2,00.0,31.6,24.4,09.3,0000.0,0002.87,0000.71,0000.38
2023-02-09 08:53:00,,0827.7,4.99,0.00,22.7,21.2,00.0,31.6,24.4,09.2,0000.0,0002.86,0000.70,0000.38
2023-02-09 08:54:00,,0827.7,5.01,0.00,22.7,21.1,00.0,31.6,24.4,09.1,0000.0,0002.88,0000.72,0000.38
2023-02-09 08:55:00,,0827.7,5.01,0.00,22.7,21.1,00.0,31.6,24.4,09.1,0000.0,0002.85,0000.71,0000.39
2023-02-09 08:56:00,,0827.7,5.04,0.00,22.6,21.0,00.0,31.5,24.4,09.2,0000.0,0002.85,0000.70,0000.40
2023-02-09 08:57:00,,0827.7,5.01,0.00,22.6,21.0,00.0,31.5,24.3,09.2,0000.0,0002.85,0000.68,0000.40
2023-02-09 08:58:00,,0827.7,4.99,0.00,22.6,21.1,00.0,31.5,24.4,09.1,0000.0,0002.81,0000.67,0000.40
2023-02-09 08:59:00,,0827.7,5.00,0.00,22.7,22.0,00.0,31.5,24.6,09.2,0000.0,0002.14,0000.66,0000.39
